STARLINK-3780 (52278 NORAD) Tracking and Keplerian Element Data

This shows tracking and keplerian element data for the satellite.

Feedback or suggestion? Click here.




ElementValue
Catalog52278
NameSTARLINK-3780
Epoch Orbit130
Epoch Day167.08334491
Epoch Year2022
RAAN106.8353
Inclination53.2173
Eccentricity0.0001682
Argument of Perigee49.4644
Mean Anonmoly118.4309
Mean Motion15.27498143
Decay Rate-0.00724599
L11 52278U 22041T 22167.08334491 -.00724599 00000+0 -28488-1 0 9991
L22 52278 53.2173 106.8353 0001682 49.4644 118.4309 15.27498143 1305

Live tracking and technical data element details for STARLINK-3780 (NORAD 52278). STARLINK-3780 can be tracked NOW for your location showing map with azimuth and elevation plus other details from your city location.

Track the satellite on the map from your city or location and see movement details for azimuth, elevation, latitude, longitude, range, height, and movement on the map or in text.







IsCatalogInMostPopularTable: catalog: 52278, numindb: 1
Update: records affected: 1



GetName: 52278 STARLINK-3780

Hit Count: updated at: Mon, 27 Jun 2022 05:10:52 GMT